Location: Saluda
(35.2377°N, 82.3468°W)
Time: 06:03:38
(UTC+00:00)

Vanguard 2 - Pass Details

Date: 09 October 2022
Orbit: 553 x 2933 km, 32.9° (Epoch: 26 November)

Event Time Altitude Azimuth Distance (km) Brightness Sun altitude
Rises 22:50:21 0° 281° (W) 5,777 13.6 1.5°
Reaches altitude 10° 22:54:11 10° 274° (W) 5,046 13.6 0.8°
Maximum altitude 23:07:47 38° 214° (SSW) 3,834 11.5 -2.0°
Drops below altitude 10° 23:23:11 10° 154° (SSE) 5,651 11.7 -5.1°
Sets 23:27:52 0° 147° (SSE) 6,511 12.0 -6.1°
